Regional Weather Roundup
Issued by NWS

Home | Current Version | Previous Version | Text Only | Print | Product List | Glossary On
Versions: 1 2 3 4 5 6 7 8 9 10 11 12 13 14 15 16 17 18 19 20 21 22 23 24 25 26 27 28 29 30 31 32 33 34 35 36 37 38 39 40 41 42 43 44 45 46 47 48 49 50
000
ASCA42 TJSJ 041210
RWRPR
PUERTO RICO/U.S. VIRGIN ISLANDS HOURLY WEATHER ROUNDUP
NATIONAL WEATHER SERVICE SAN JUAN PR
800 AM AST WED MAR 04 2015

PRZ001-004-041300-
PUERTO RICO

CITY           SKY/WX    TMP DP  RH WIND       PRES   REMARKS
SAN JUAN LMM   PTSUNNY   75  66  73 E16G24    30.09R
AGUADILLA      MOSUNNY   70  64  83 E12G17    30.10R
CEIBA          PTSUNNY  N/A N/A N/A NE14G22   30.11R
$$

PRZ006-007-041300-
U.S. VIRGIN ISLANDS

CITY           SKY/WX    TMP DP  RH WIND       PRES   REMARKS
$$

HOURLY WEATHER ROUNDUP FOR THE NEWS MEDIA

CITY           SKY/WX    TMP DP  RH WIND       PRES   REMARKS
ORLANDO        CLEAR     65  64  97 SE3       30.15R
NEW YORK       LGT RAIN  36  32  87 SW10      29.83R FOG     WCI  28
NEWARK         CLOUDY    35  33  92 SW8       29.82R FOG     WCI  29
CHICAGO        PTCLDY    18  12  77 NW14      30.00R WCI   4
HARTFORD       LGT RAIN  36  35  96 SW8       29.73R WCI  30
BOSTON         CLOUDY    37  34  89 SW13      29.70R WCI  29
DALLAS         DRIZZLE   54  52  94 N3        29.88S FOG
PHILADELPHIA   CLOUDY    35  33  92 SW8       29.86R FOG     WCI  29
LOS ANGELES    CLEAR     50  44  80 NE5       29.98S
WASHINGTON DC  CLOUDY    37  35  92 S5        29.88R WCI  33


USA.gov is the U.S. government's official web portal to all federal, state and local government web resources and services.